アトラス彗星

C/2019 T4 ( ATLAS )

English version
Home page
Updated on September 11, 2022

---------------------------------------------------------------------

・ プロフィール

発見日 2019年10月9日
発見光度 19.3等
発見者 Asteroid Terrestrial-Impact Last Alert System (ATLAS) search program

・ 写真集

・ 軌道要素

Epoch 2022 Aug. 9.0 TT = JDT 2459800.5
T 2022 June  9.09886 TT                                 Rudenko
q   4.2423857            (2000.0)            P               Q
z  +0.0010046      Peri.  351.19517     -0.95993306     +0.05594365
 +/-0.0000003      Node   199.93879     -0.18187504     -0.86983185
e   0.9957381      Incl.   53.63024     -0.21319003     +0.49016616
From 1685 observations 2019 Feb. 5-2022 Aug. 28, mean residual 0".4.

・ 星図

・ 光度変化

        m1 = -2.5 + 5 logΔ + 18.0 log r

---------------------------------------------------------------------

軌道要素はM.P.E.C. 2022-R68に掲載されたものです。
星図はステラナビゲータ Ver.10 (アストロアーツ) で作成したものです。
光度グラフはComet for Windowsで作成したものです。

---------------------------------------------------------------------

Copyright(C) Seiichi Yoshida (comet@aerith.net). All rights reserved.